This is the latest recevied weather packets stored in our database for station/object n3uvr. If no packets are shown the sender has not sent any weather packets the latest 10 day(s).
| Time | Temp. | Humidity | Pressure | Rain* | Wind** | Luminosity | Snow |
|---|---|---|---|---|---|---|---|
| 1777649133 | 12.22° C | 60% | 1012 hPa | 0 mm | - | 339 W/m² | - |
| 1777647334 | 11.11° C | 61% | 1012 hPa | 0 mm | - | 116 W/m² | - |
| 1777646710 | 10.56° C | 67% | 1012 hPa | 0 mm | - | 752 W/m² | - |
| 1777646121 | 10.56° C | 67% | 1012.1 hPa | 0 mm | - | 141 W/m² | - |
| 1777645527 | 9.44° C | 70% | 1012.3 hPa | 0 mm | - | 174 W/m² | - |
| 1777644928 | 8.89° C | 73% | 1012.4 hPa | 0 mm | - | 151 W/m² | - |
| 1777644328 | 8.33° C | 74% | 1012.5 hPa | 0 mm | - | 151 W/m² | - |
| 1777643731 | 8.33° C | 76% | 1012.7 hPa | 0 mm | - | 139 W/m² | - |
| 1777643137 | 7.78° C | 79% | 1012.7 hPa | 0 mm | - | 135 W/m² | - |
| 1777642522 | 7.22° C | 81% | 1012.6 hPa | 0 mm | - | 156 W/m² | - |
| 1777641912 | 7.22° C | 84% | 1012.5 hPa | 0 mm | - | 134 W/m² | - |
| 1777640736 | 6.11° C | 87% | 1012.5 hPa | 0 mm | - | 125 W/m² | - |
| 1777638940 | 5.56° C | 88% | 1012.6 hPa | 0 mm | - | 88 W/m² | - |
| 1777638356 | 5° C | 88% | 1012.6 hPa | 0 mm | - | 72 W/m² | - |
| 1777636535 | 4.44° C | 88% | 1012.6 hPa | 0 mm | - | 51 W/m² | - |
| 1777635921 | 4.44° C | 88% | 1012.4 hPa | 0 mm | - | 37 W/m² | - |
| 1777634729 | 3.89° C | 87% | 1012.2 hPa | 0 mm | - | 26 W/m² | - |
| 1777634139 | 3.89° C | 87% | 1011.8 hPa | 0 mm | - | 16 W/m² | - |
| 1777633528 | 3.89° C | 87% | 1011.8 hPa | 0 mm | - | 14 W/m² | - |
| 1777632902 | 3.89° C | 86% | 1011.8 hPa | 0 mm | - | 9 W/m² | - |
| 1777632299 | 4.44° C | 85% | 1011.8 hPa | 0 mm | - | 5 W/m² | - |
| 1777631142 | 4.44° C | 85% | 1011.6 hPa | 0 mm | - | 0 W/m² | - |
| 1777630543 | 4.44° C | 84% | 1011.4 hPa | 0 mm | - | 0 W/m² | - |
| 1777629951 | 4.44° C | 83% | 1011.4 hPa | 0 mm | - | 0 W/m² | - |
| 1777629323 | 5° C | 83% | 1011.3 hPa | 0 mm | - | 0 W/m² | - |
* Rain latest hour (hover to see other rain measurements)
** Current wind speed in m/s (hover to see current wind gust speed)